Time,TemperatureF,DewpointF,PressureIn,WindDirection,WindDirectionDegrees,WindSpeedMPH,WindSpeedGustMPH,Humidity,HourlyPrecipIn,Conditions,Clouds,dailyrainin,SolarRadiationWatts/m^2,SoftwareType,DateUTC
2013-06-29 00:01:00,51.0,50.0,-100.00,NE,42,2.0,4.0,97,0.01,,,0.06,6.400000,,2013-06-29 08:01:00,
2013-06-29 00:11:00,51.0,50.0,-100.00,NE,42,2.0,4.0,97,0.01,,,0.06,6.400000,,2013-06-29 08:11:00,
2013-06-29 00:21:00,51.0,50.0,-100.00,NE,42,2.0,4.0,97,0.01,,,0.06,6.400000,,2013-06-29 08:21:00,
2013-06-29 00:52:00,51.0,50.0,-100.00,North,7,0.0,9.0,96,0.00,,,0.06,0.900000,,2013-06-29 08:52:00,
2013-06-29 01:02:00,51.0,50.0,-100.00,North,7,0.0,9.0,96,0.00,,,0.06,0.900000,,2013-06-29 09:02:00,
2013-06-29 01:12:00,51.0,50.0,-100.00,North,7,0.0,9.0,96,0.00,,,0.06,0.900000,,2013-06-29 09:12:00,
2013-06-29 01:22:00,51.0,50.0,-100.00,North,7,0.0,9.0,96,0.00,,,0.06,0.900000,,2013-06-29 09:22:00,
2013-06-29 01:53:00,51.0,49.0,-100.00,NNW,341,0.0,5.0,94,0.00,,,0.06,0.800000,,2013-06-29 09:53:00,
2013-06-29 02:01:00,51.0,49.0,-100.00,NNW,341,0.0,5.0,94,0.00,,,0.06,0.800000,,2013-06-29 10:01:00,
2013-06-29 02:11:00,51.0,49.0,-100.00,NNW,341,0.0,5.0,94,0.00,,,0.06,0.800000,,2013-06-29 10:11:00,
2013-06-29 02:22:00,51.0,49.0,-100.00,NNW,341,0.0,5.0,94,0.00,,,0.06,0.800000,,2013-06-29 10:22:00,
2013-06-29 02:53:00,50.0,49.0,-100.00,NW,323,1.0,31.0,94,0.00,,,0.06,0.800000,,2013-06-29 10:53:00,
2013-06-29 03:01:00,50.0,49.0,-100.00,NW,323,1.0,31.0,94,0.00,,,0.06,0.800000,,2013-06-29 11:01:00,
2013-06-29 03:11:00,50.0,49.0,-100.00,NW,323,1.0,31.0,94,0.00,,,0.06,0.800000,,2013-06-29 11:11:00,
2013-06-29 03:23:00,50.0,49.0,-100.00,NW,323,1.0,31.0,94,0.00,,,0.06,0.800000,,2013-06-29 11:23:00,
2013-06-29 03:53:00,50.0,48.0,-100.00,West,267,2.0,6.0,93,0.00,,,0.06,0.800000,,2013-06-29 11:53:00,
2013-06-29 04:02:00,50.0,48.0,-100.00,West,267,2.0,6.0,93,0.00,,,0.06,0.800000,,2013-06-29 12:02:00,
2013-06-29 04:11:00,50.0,48.0,-100.00,West,267,2.0,6.0,93,0.00,,,0.06,0.800000,,2013-06-29 12:11:00,
2013-06-29 04:22:00,50.0,48.0,-100.00,West,267,2.0,6.0,93,0.00,,,0.06,0.800000,,2013-06-29 12:22:00,
2013-06-29 04:53:00,51.0,48.0,-100.00,ENE,59,1.0,8.0,90,0.00,,,-99.99,0.900000,,2013-06-29 12:53:00,
2013-06-29 05:02:00,51.0,48.0,-100.00,ENE,59,1.0,8.0,90,0.00,,,-99.99,0.900000,,2013-06-29 13:02:00,
2013-06-29 05:11:00,51.0,48.0,-100.00,ENE,59,1.0,8.0,90,0.00,,,-99.99,0.900000,,2013-06-29 13:11:00,
2013-06-29 05:23:00,51.0,48.0,-100.00,ENE,59,1.0,8.0,90,0.00,,,-99.99,0.900000,,2013-06-29 13:23:00,
2013-06-29 05:53:00,51.0,48.0,-100.00,WSW,245,4.0,7.0,89,0.00,,,0.05,10.100000,,2013-06-29 13:53:00,
2013-06-29 06:02:00,51.0,48.0,-100.00,WSW,245,4.0,7.0,89,0.00,,,0.05,10.100000,,2013-06-29 14:02:00,
2013-06-29 06:12:00,51.0,48.0,-100.00,WSW,245,4.0,7.0,89,0.00,,,0.05,10.100000,,2013-06-29 14:12:00,
2013-06-29 06:23:00,51.0,48.0,-100.00,WSW,245,4.0,7.0,89,0.00,,,0.05,10.100000,,2013-06-29 14:23:00,
2013-06-29 06:53:00,52.0,48.0,-100.00,SSW,199,2.0,163.0,89,0.00,,,0.05,32.400002,,2013-06-29 14:53:00,
2013-06-29 07:01:00,52.0,48.0,-100.00,SSW,199,2.0,163.0,89,0.00,,,0.05,32.400002,,2013-06-29 15:01:00,
2013-06-29 07:11:00,52.0,48.0,-100.00,SSW,199,2.0,163.0,89,0.00,,,0.05,32.400002,,2013-06-29 15:11:00,
2013-06-29 07:22:00,52.0,48.0,-100.00,SSW,199,2.0,163.0,89,0.00,,,0.05,32.400002,,2013-06-29 15:22:00,
2013-06-29 07:53:00,51.0,50.0,-100.00,NNE,29,1.0,9.0,94,0.00,,,0.03,90.300003,,2013-06-29 15:53:00,
2013-06-29 08:01:00,51.0,50.0,-100.00,NNE,29,1.0,9.0,94,0.00,,,0.03,90.300003,,2013-06-29 16:01:00,
2013-06-29 08:12:00,51.0,50.0,-100.00,NNE,29,1.0,9.0,94,0.00,,,0.03,90.300003,,2013-06-29 16:12:00,
2013-06-29 08:22:00,51.0,50.0,-100.00,NNE,29,1.0,9.0,94,0.00,,,0.03,90.300003,,2013-06-29 16:22:00,
2013-06-29 08:53:00,54.0,50.0,-100.00,SW,215,0.0,56.0,86,0.00,,,0.02,138.000000,,2013-06-29 16:53:00,
2013-06-29 09:01:00,54.0,50.0,-100.00,SW,215,0.0,56.0,86,0.00,,,0.02,138.000000,,2013-06-29 17:01:00,
2013-06-29 09:11:00,54.0,50.0,-100.00,SW,215,0.0,56.0,86,0.00,,,0.02,138.000000,,2013-06-29 17:11:00,
2013-06-29 09:22:00,54.0,50.0,-100.00,SW,215,0.0,56.0,86,0.00,,,0.02,138.000000,,2013-06-29 17:22:00,
2013-06-29 09:53:00,56.0,51.0,-100.00,ESE,107,4.0,183.0,83,0.00,,,0.02,330.799988,,2013-06-29 17:53:00,
2013-06-29 10:01:00,56.0,51.0,-100.00,ESE,107,4.0,183.0,83,0.00,,,0.02,330.799988,,2013-06-29 18:01:00,
2013-06-29 10:11:00,56.0,51.0,-100.00,ESE,107,4.0,183.0,83,0.00,,,0.02,330.799988,,2013-06-29 18:11:00,
2013-06-29 10:22:00,56.0,51.0,-100.00,ESE,107,4.0,183.0,83,0.00,,,0.02,330.799988,,2013-06-29 18:22:00,
2013-06-29 10:53:00,59.0,51.0,-100.00,East,101,3.0,9.0,76,0.00,,,0.02,578.599976,,2013-06-29 18:53:00,
2013-06-29 11:01:00,59.0,51.0,-100.00,East,101,3.0,9.0,76,0.00,,,0.02,578.599976,,2013-06-29 19:01:00,
2013-06-29 11:12:00,59.0,51.0,-100.00,East,101,3.0,9.0,76,0.00,,,0.02,578.599976,,2013-06-29 19:12:00,
2013-06-29 11:22:00,59.0,51.0,-100.00,East,101,3.0,9.0,76,0.00,,,0.02,578.599976,,2013-06-29 19:22:00,
2013-06-29 11:54:00,61.0,53.0,-100.00,East,99,4.0,10.0,74,0.00,,,0.02,672.000000,,2013-06-29 19:54:00,
2013-06-29 12:01:00,61.0,53.0,-100.00,East,99,4.0,10.0,74,0.00,,,0.02,672.000000,,2013-06-29 20:01:00,
2013-06-29 12:11:00,61.0,53.0,-100.00,East,99,4.0,10.0,74,0.00,,,0.02,672.000000,,2013-06-29 20:11:00,
2013-06-29 12:23:00,61.0,53.0,-100.00,East,99,4.0,10.0,74,0.00,,,0.02,672.000000,,2013-06-29 20:23:00,
2013-06-29 12:52:00,63.0,52.0,-100.00,SE,135,3.0,13.0,67,0.00,,,0.02,756.400024,,2013-06-29 20:52:00,
2013-06-29 13:01:00,63.0,52.0,-100.00,SE,135,3.0,13.0,67,0.00,,,0.02,756.400024,,2013-06-29 21:01:00,
2013-06-29 13:11:00,63.0,52.0,-100.00,SE,135,3.0,13.0,67,0.00,,,0.02,756.400024,,2013-06-29 21:11:00,
2013-06-29 13:22:00,63.0,52.0,-100.00,SE,135,3.0,13.0,67,0.00,,,0.02,756.400024,,2013-06-29 21:22:00,
2013-06-29 13:52:00,61.0,51.0,-100.00,SE,135,5.0,13.0,70,0.00,,,-99.99,813.599976,,2013-06-29 21:52:00,
2013-06-29 14:01:00,61.0,51.0,-100.00,SE,135,5.0,13.0,70,0.00,,,-99.99,813.599976,,2013-06-29 22:01:00,
2013-06-29 14:11:00,61.0,51.0,-100.00,SE,135,5.0,13.0,70,0.00,,,-99.99,813.599976,,2013-06-29 22:11:00,
2013-06-29 14:21:00,61.0,51.0,-100.00,SE,135,5.0,13.0,70,0.00,,,-99.99,813.599976,,2013-06-29 22:21:00,
2013-06-29 14:53:00,60.0,53.0,-100.00,SE,129,11.0,-999.0,77,0.00,,,0.02,834.200012,,2013-06-29 22:53:00,
2013-06-29 15:02:00,60.0,53.0,-100.00,SE,129,11.0,-999.0,77,0.00,,,0.02,834.200012,,2013-06-29 23:02:00,
2013-06-29 15:12:00,60.0,53.0,-100.00,SE,129,11.0,-999.0,77,0.00,,,0.02,834.200012,,2013-06-29 23:12:00,
2013-06-29 15:23:00,60.0,53.0,-100.00,SE,129,11.0,-999.0,77,0.00,,,0.02,834.200012,,2013-06-29 23:23:00,
2013-06-29 15:53:00,61.0,54.0,-100.00,SSE,161,1.0,26.0,77,0.00,,,0.02,802.299988,,2013-06-29 23:53:00,
2013-06-29 16:02:00,61.0,54.0,-100.00,SSE,161,1.0,26.0,77,0.00,,,0.02,802.299988,,2013-06-30 00:02:00,
2013-06-29 16:11:00,61.0,54.0,-100.00,SSE,161,1.0,26.0,77,0.00,,,0.02,802.299988,,2013-06-30 00:11:00,
2013-06-29 16:22:00,61.0,54.0,-100.00,SSE,161,1.0,26.0,77,0.00,,,0.02,802.299988,,2013-06-30 00:22:00,
2013-06-29 16:52:00,60.0,52.0,-100.00,SSE,147,7.0,28.0,74,0.00,,,0.02,743.099976,,2013-06-30 00:52:00,
2013-06-29 17:01:00,60.0,52.0,-100.00,SSE,147,7.0,28.0,74,0.00,,,0.02,743.099976,,2013-06-30 01:01:00,
2013-06-29 17:11:00,60.0,52.0,-100.00,SSE,147,7.0,28.0,74,0.00,,,0.02,743.099976,,2013-06-30 01:11:00,
2013-06-29 17:22:00,60.0,52.0,-100.00,SSE,147,7.0,28.0,74,0.00,,,0.02,743.099976,,2013-06-30 01:22:00,
2013-06-29 17:53:00,60.0,52.0,-100.00,SSE,149,6.0,10.0,75,0.00,,,0.02,655.700012,,2013-06-30 01:53:00,
2013-06-29 18:02:00,60.0,52.0,-100.00,SSE,149,6.0,10.0,75,0.00,,,0.02,655.700012,,2013-06-30 02:02:00,
2013-06-29 18:11:00,60.0,52.0,-100.00,SSE,149,6.0,10.0,75,0.00,,,0.02,655.700012,,2013-06-30 02:11:00,
2013-06-29 18:23:00,60.0,52.0,-100.00,SSE,149,6.0,10.0,75,0.00,,,0.02,655.700012,,2013-06-30 02:23:00,
2013-06-29 18:53:00,59.0,51.0,-100.00,SSE,151,6.0,10.0,77,0.00,,,0.02,552.799988,,2013-06-30 02:53:00,
2013-06-29 19:01:00,59.0,51.0,-100.00,SSE,151,6.0,10.0,77,0.00,,,0.02,552.799988,,2013-06-30 03:01:00,
2013-06-29 19:11:00,59.0,51.0,-100.00,SSE,151,6.0,10.0,77,0.00,,,0.02,552.799988,,2013-06-30 03:11:00,
2013-06-29 19:23:00,59.0,51.0,-100.00,SSE,151,6.0,10.0,77,0.00,,,0.02,552.799988,,2013-06-30 03:23:00,
2013-06-29 19:53:00,57.0,52.0,-100.00,ESE,119,2.0,9.0,82,0.00,,,0.02,437.600006,,2013-06-30 03:53:00,
2013-06-29 20:01:00,57.0,52.0,-100.00,ESE,119,2.0,9.0,82,0.00,,,0.02,437.600006,,2013-06-30 04:01:00,
2013-06-29 20:12:00,57.0,52.0,-100.00,ESE,119,2.0,9.0,82,0.00,,,0.02,437.600006,,2013-06-30 04:12:00,
2013-06-29 20:22:00,57.0,52.0,-100.00,ESE,119,2.0,9.0,82,0.00,,,0.02,437.600006,,2013-06-30 04:22:00,
2013-06-29 20:53:00,54.0,50.0,-100.00,SE,134,4.0,22.0,86,0.00,,,0.02,138.199997,,2013-06-30 04:53:00,
2013-06-29 21:02:00,54.0,50.0,-100.00,SE,134,4.0,22.0,86,0.00,,,0.02,138.199997,,2013-06-30 05:02:00,
2013-06-29 21:12:00,54.0,50.0,-100.00,SE,134,4.0,22.0,86,0.00,,,0.02,138.199997,,2013-06-30 05:12:00,
2013-06-29 21:22:00,54.0,50.0,-100.00,SE,134,4.0,22.0,86,0.00,,,0.02,138.199997,,2013-06-30 05:22:00,
2013-06-29 21:53:00,54.0,51.0,-100.00,South,188,1.0,18.0,89,0.00,,,0.02,44.900002,,2013-06-30 05:53:00,
2013-06-29 22:02:00,54.0,51.0,-100.00,South,188,1.0,18.0,89,0.00,,,0.02,44.900002,,2013-06-30 06:02:00,
2013-06-29 22:12:00,54.0,51.0,-100.00,South,188,1.0,18.0,89,0.00,,,0.02,44.900002,,2013-06-30 06:12:00,
2013-06-29 22:23:00,54.0,51.0,-100.00,South,188,1.0,18.0,89,0.00,,,0.02,44.900002,,2013-06-30 06:23:00,
2013-06-29 22:53:00,54.0,51.0,-100.00,NE,40,1.0,65.0,89,0.00,,,0.01,14.100000,,2013-06-30 06:53:00,
2013-06-29 23:02:00,54.0,51.0,-100.00,NE,40,1.0,65.0,89,0.00,,,0.01,14.100000,,2013-06-30 07:02:00,
2013-06-29 23:12:00,54.0,51.0,-100.00,NE,40,1.0,65.0,89,0.00,,,0.01,14.100000,,2013-06-30 07:12:00,
2013-06-29 23:22:00,54.0,51.0,-100.00,NE,40,1.0,65.0,89,0.00,,,0.01,14.100000,,2013-06-30 07:22:00,
2013-06-29 23:53:00,53.0,51.0,-100.00,ESE,102,0.0,62.0,91,0.00,,,0.00,5.400000,,2013-06-30 07:53:00,